GFSSE_850_thetae_282.txt.gz
Theta_e
334 336 339 341 343 342 341 339 340 337 337 336 335 336 336 338 337 336 337 337 338 338 337 338 342 334 333 335 344 339 337 337 338 338 339 338 334 331 331 331 333 333 334
334 337 342 343 344 344 345 343 338 338 337 334 340 339 337 337 346 347 339 343 342 342 342 341 339 342 342 336 334 338 338 340 339 341 340 336 337 332 333 335 335 335 334
332 339 341 343 343 342 344 342 338 339 332 337 339 339 339 339 338 337 336 335 337 336 336 334 336 338 337 336 336 336 335 334 333 336 337 336 333 333 331 330 331 331 332
332 339 341 342 342 343 340 340 339 331 340 338 337 339 340 337 336 332 331 339 341 340 332 335 337 342 342 342 342 343 339 331 328 335 330 331 330 331 331 332 332 333 332
332 338 340 342 341 341 339 338 334 334 337 337 339 340 337 329 334 321 320 323 332 335 333 340 342 342 341 340 339 337 337 335 334 333 338 333 338 335 334 332 331 331 332
333 337 340 341 341 340 342 338 335 339 340 340 339 331 325 326 321 322 318 317 320 330 333 339 336 338 338 338 336 333 331 333 332 334 335 340 339 334 336 338 333 331 335
334 337 338 341 340 339 334 336 338 339 338 336 326 324 326 329 336 342 330 317 319 325 333 335 339 338 336 335 333 327 326 326 326 323 322 326 329 326 327 336 329 327 332
337 337 339 340 340 338 334 339 340 338 336 333 326 331 334 334 332 330 322 320 322 324 332 337 336 335 333 331 329 326 322 322 324 322 322 321 321 322 323 323 322 323 324
340 335 339 339 341 335 334 340 339 337 335 330 331 335 336 335 334 332 332 331 332 334 335 336 335 334 332 331 329 327 325 324 324 325 324 324 324 324 325 324 323 323 323
340 339 336 339 340 336 338 339 340 335 334 329 334 338 340 339 337 335 334 335 335 335 335 335 335 334 333 331 330 330 330 329 329 329 328 329 329 330 330 329 329 328 328
341 340 339 340 341 336 336 339 333 334 333 329 336 340 343 345 346 345 343 342 339 336 335 335 336 337 338 338 333 331 331 331 331 331 331 332 332 332 333 333 333 333 333
344 341 342 339 341 336 340 335 334 330 330 330 338 342 342 346 346 346 346 348 349 349 345 339 338 340 340 340 342 340 336 334 333 332 332 332 333 333 333 333 334 334 334
344 344 343 339 340 338 336 334 334 329 329 330 337 343 344 344 346 346 348 349 349 349 349 347 344 344 345 344 342 343 343 344 342 340 336 337 335 334 334 334 335 335 335
341 343 342 339 339 338 334 336 344 339 335 329 336 344 345 343 344 344 347 347 348 348 348 348 348 348 347 347 345 344 344 345 346 346 346 344 344 344 339 337 337 336 337
338 342 342 340 338 337 340 338 345 344 335 329 336 341 343 342 344 347 348 348 347 347 347 347 348 348 348 347 346 346 346 346 345 346 347 347 347 345 346 344 342 343 342
337 339 342 339 337 336 344 344 342 346 344 330 332 339 342 341 344 347 348 347 347 346 347 348 348 347 347 346 346 347 347 347 347 345 346 346 346 346 346 346 347 345 348
338 338 339 337 336 337 341 343 344 341 343 336 327 337 340 340 343 345 346 347 346 346 345 348 348 348 347 346 347 347 348 348 347 348 347 347 346 345 345 346 347 348 347
340 339 339 336 336 343 346 346 345 345 340 340 333 337 338 336 338 342 343 345 344 345 346 347 348 349 348 347 348 348 347 347 347 348 348 348 347 346 346 346 347 347 348
345 341 339 336 335 337 341 343 347 346 346 345 344 343 343 344 341 341 339 340 343 345 346 347 348 349 348 348 348 349 348 347 347 347 347 347 348 347 346 346 346 347 348
343 345 340 337 337 339 343 345 346 347 347 347 346 346 345 344 342 342 341 339 341 342 345 346 347 347 348 348 347 347 347 347 347 347 346 346 347 347 347 346 346 346 345
344 343 345 343 341 343 344 345 345 346 347 346 345 343 346 344 343 343 340 338 340 340 342 345 346 347 347 347 347 345 345 346 346 347 347 346 346 346 345 345 346 346 343
344 344 343 345 345 344 345 346 345 346 345 346 345 345 346 345 344 344 339 336 340 340 340 342 344 344 346 345 345 347 349 345 345 347 347 347 346 346 346 346 347 346 346
344 344 344 344 345 345 346 347 346 347 346 346 345 345 346 345 344 344 345 337 340 341 340 340 341 343 344 344 344 344 351 349 349 347 347 346 348 348 349 348 347 346 343
343 344 344 345 346 346 346 346 345 344 344 342 342 344 345 344 345 343 344 345 340 342 342 343 342 342 342 343 342 342 349 350 350 350 347 347 348 347 347 347 346 345 341
343 344 344 345 346 346 346 346 345 344 344 345 344 340 344 345 345 345 343 344 345 344 343 341 342 345 343 342 343 347 347 351 351 349 350 349 349 348 347 346 346 341 342
343 344 345 345 345 347 347 346 346 345 345 346 345 344 342 342 344 344 344 344 345 345 345 346 346 342 345 345 344 346 346 350 351 351 349 347 346 345 345 343 341 342 342

GFSSE_850_thetae_285.txt.gz
Theta_e
337 338 339 342 342 339 342 343 341 340 340 343 339 340 339 336 337 338 338 344 342 339 342 333 333 333 343 343 336 338 341 342 342 340 339 333 331 333 335 339 340 342 334
337 340 343 343 341 342 342 341 342 342 342 342 340 345 344 345 345 343 343 343 341 342 340 340 344 340 336 334 336 336 342 340 343 340 340 338 336 339 335 335 334 336 334
338 342 342 342 343 343 343 345 341 333 340 342 344 346 344 343 338 339 340 338 337 335 334 337 336 337 336 335 337 336 335 332 334 336 335 343 342 336 332 332 332 334 338
339 342 342 343 345 343 341 342 334 343 343 340 342 342 341 343 337 335 341 341 341 333 334 339 342 342 342 342 343 339 332 329 333 330 340 343 342 333 335 333 333 332 332
340 342 342 342 344 340 339 340 342 343 342 340 342 339 331 338 323 320 326 334 333 333 339 341 341 339 339 338 338 336 335 334 334 338 334 340 344 335 334 332 332 331 333
339 341 342 341 340 339 340 335 338 340 341 339 329 326 324 331 330 318 318 325 331 335 339 336 338 338 337 336 334 334 331 329 328 332 338 340 342 338 338 333 331 332 335
338 340 342 341 340 341 336 338 339 341 336 326 326 329 333 343 343 326 317 321 328 334 335 338 336 334 333 330 326 324 325 325 324 322 325 334 336 325 336 328 325 329 333
336 339 341 340 339 341 338 339 343 337 328 328 334 336 335 336 325 320 321 323 328 334 336 335 334 333 331 328 326 324 324 324 323 323 322 322 323 323 324 323 323 323 324
336 338 340 340 338 341 342 340 339 335 328 334 337 337 334 333 332 331 330 331 334 335 335 335 333 332 330 330 329 328 327 326 327 325 325 324 324 325 326 325 325 325 325
334 339 339 341 336 340 344 344 342 334 330 336 338 337 336 335 335 335 335 335 335 335 335 335 336 336 333 331 330 330 330 330 330 329 329 328 328 329 329 330 330 329 329
339 335 339 340 335 334 339 341 336 332 332 338 341 343 345 343 343 344 344 344 338 336 337 337 338 339 340 339 335 332 332 331 331 331 332 332 332 332 333 333 333 333 333
340 339 338 340 336 335 337 336 334 331 332 339 343 345 346 346 345 344 348 349 347 342 340 340 340 341 341 342 343 342 339 337 333 333 333 333 333 333 333 334 334 334 335
341 340 339 340 336 336 337 333 330 330 332 339 343 344 344 345 346 347 348 348 348 347 346 346 347 347 346 346 344 343 345 345 345 344 342 341 338 335 335 335 335 336 336
343 341 341 340 337 339 333 334 331 329 331 340 343 343 344 343 343 347 348 348 347 347 348 348 348 347 346 346 346 345 345 345 346 346 346 346 344 344 342 339 339 338 338
344 342 341 340 336 337 334 340 341 335 329 337 345 345 343 343 343 347 348 347 347 346 347 348 347 347 346 347 346 346 346 346 345 345 346 346 346 346 345 346 345 344 344
342 343 340 339 337 336 337 342 345 339 331 332 343 344 344 343 346 347 347 347 346 346 346 348 348 347 347 346 346 347 347 347 347 347 347 346 346 345 345 346 346 347 347
339 343 341 339 337 336 342 344 343 345 343 329 337 342 343 342 345 346 346 346 345 345 345 347 347 349 348 347 347 348 347 347 347 347 348 348 347 346 345 346 346 347 347
337 342 341 339 336 338 341 343 343 341 341 338 328 337 340 337 340 344 344 344 344 344 345 346 347 349 348 348 348 349 349 347 347 347 347 347 348 348 347 346 346 347 347
338 341 338 336 335 339 344 345 345 345 342 342 333 334 342 341 339 338 340 339 339 343 343 346 346 348 348 348 349 349 347 347 346 347 346 346 346 347 347 347 346 346 346
342 339 337 336 336 339 344 345 345 346 346 345 344 343 344 344 342 340 339 337 338 340 342 344 345 346 347 347 348 349 346 345 345 346 347 346 346 346 346 345 345 346 346
343 344 339 337 336 335 338 341 343 343 346 346 347 345 345 346 344 342 342 337 336 337 340 341 342 345 345 346 348 348 347 346 346 346 346 346 347 347 346 346 345 346 346
344 343 345 342 338 337 341 343 344 345 345 345 346 345 344 345 345 343 343 342 338 336 338 340 340 342 342 342 345 347 346 345 350 347 347 347 346 346 347 348 348 347 345
343 344 343 343 345 343 344 344 345 346 344 345 345 345 344 345 346 345 344 344 344 337 339 341 341 343 345 342 341 346 345 346 351 350 349 346 348 349 348 348 347 346 344
343 343 344 344 344 345 345 345 346 346 345 344 344 344 343 345 345 345 344 344 344 345 342 341 343 342 344 349 347 345 344 347 350 350 351 352 348 350 350 349 348 346 345
342 342 343 344 344 344 346 346 346 346 346 345 344 344 345 342 341 345 345 344 345 343 345 344 344 344 344 342 348 349 348 350 350 351 349 350 351 350 349 348 346 344 333
342 342 343 344 344 344 345 346 347 346 346 346 345 346 346 345 345 344 343 344 344 343 343 344 345 346 346 346 343 344 349 347 346 349 349 349 350 350 350 348 348 343 335

GFSSE_850_thetae_291.txt.gz
Theta_e
347 343 340 339 341 343 341 339 343 343 340 337 337 340 342 341 342 342 341 339 333 333 333 345 343 340 344 344 343 341 339 338 333 332 333 335 336 333 341 343 343 342 332
349 347 338 342 342 342 341 342 345 342 344 344 345 344 344 342 343 342 343 342 343 344 343 342 337 340 341 343 342 343 341 338 341 343 340 336 332 336 342 344 341 332 333
348 347 341 342 343 343 339 342 341 342 345 344 343 342 340 341 340 339 339 341 338 337 339 341 339 342 338 332 331 337 337 334 342 344 345 343 344 338 338 337 338 334 334
349 349 348 342 344 341 335 344 343 344 343 341 342 344 336 344 344 344 335 339 343 343 342 342 341 339 338 336 335 333 331 337 345 347 345 343 344 337 334 332 333 335 336
350 350 343 343 343 338 343 343 342 342 342 335 329 324 318 324 337 336 334 339 343 340 337 336 335 334 332 331 331 332 339 344 345 344 348 345 343 334 336 340 337 341 342
351 352 344 342 341 339 343 343 342 340 326 323 333 347 328 318 326 334 335 339 336 336 333 333 331 327 327 327 326 326 339 345 346 346 345 344 343 334 332 333 334 333 335
350 349 342 340 339 340 343 342 337 326 328 332 344 345 344 319 322 330 335 335 335 333 333 331 330 327 324 324 325 326 340 342 344 346 347 344 330 340 328 326 337 338 334
350 349 346 341 336 344 343 339 327 332 338 339 341 325 322 321 325 330 334 334 334 333 332 331 330 329 328 327 327 330 337 340 340 343 342 332 326 326 325 325 325 327 328
350 348 348 346 339 343 340 337 330 336 335 333 332 331 330 330 332 333 333 334 334 334 335 334 333 331 330 330 330 333 339 340 341 341 342 332 329 329 329 328 328 328 328
350 350 348 346 341 342 345 330 333 336 336 336 341 340 338 338 338 342 337 336 337 337 338 339 339 337 333 331 331 333 337 339 339 340 339 331 331 331 331 331 331 331 331
350 349 348 351 337 350 350 331 335 337 342 346 348 348 350 350 349 346 341 340 341 341 342 342 344 345 345 338 343 342 338 337 336 337 334 333 333 333 333 333 333 334 334
349 350 348 344 346 350 349 348 346 346 352 352 349 352 347 346 348 345 345 345 348 344 345 347 351 350 351 350 349 348 347 343 339 338 336 335 335 335 336 335 335 336 336
347 350 349 345 348 348 346 343 345 346 349 351 352 350 351 349 352 348 348 351 350 351 354 352 352 353 349 350 348 347 349 346 343 342 344 344 342 341 341 341 340 341 341
347 348 350 346 350 349 346 344 344 345 347 349 352 353 352 348 348 348 349 349 348 349 350 350 351 352 351 352 351 351 349 346 345 345 343 344 345 345 345 345 346 346 346
347 348 350 348 349 350 349 347 344 346 348 350 350 351 350 349 352 350 350 348 349 348 349 351 352 352 353 351 351 350 349 348 350 348 347 343 344 345 346 346 346 347 347
348 348 353 346 350 349 351 350 347 346 348 350 348 352 350 353 349 350 349 347 348 350 351 352 354 351 350 349 351 352 351 350 350 350 350 349 345 345 345 346 346 347 347
349 349 345 344 349 349 349 348 350 344 344 345 348 349 352 352 353 348 349 348 349 350 350 351 352 351 349 350 350 350 350 350 350 351 351 350 351 349 348 346 346 346 346
350 351 348 347 347 348 350 352 349 349 346 343 344 346 351 351 352 348 347 347 352 349 348 349 350 351 352 351 349 348 348 348 349 350 351 350 350 350 351 351 350 348 346
350 351 347 348 346 347 351 351 350 350 350 347 344 344 349 349 347 348 346 348 350 348 346 348 351 352 352 351 349 347 348 347 347 346 350 352 353 353 352 353 354 351 347
350 350 350 348 346 348 350 350 350 351 350 350 349 345 346 349 351 351 345 347 349 345 346 354 351 352 352 350 350 349 347 346 347 347 348 349 351 350 352 352 354 355 352
349 350 351 349 349 349 350 350 350 349 349 350 352 351 350 348 351 353 349 348 348 346 349 350 352 351 349 349 351 349 348 344 344 344 346 346 349 349 353 353 356 352 353
348 349 350 349 349 348 350 350 350 350 350 351 351 352 354 353 353 351 352 350 350 349 349 349 350 350 347 347 350 350 348 345 342 346 345 348 350 351 348 350 352 354 353
350 350 349 348 349 347 347 349 351 353 348 349 349 349 351 353 353 353 353 354 354 351 348 349 349 349 347 349 348 348 348 347 348 346 343 343 349 350 351 350 348 351 350
348 351 351 352 351 351 348 348 352 351 349 349 350 349 349 351 349 350 351 354 356 354 352 351 350 351 350 346 344 344 344 347 348 348 345 344 345 345 350 346 349 348 350
349 350 352 354 354 352 355 349 352 351 352 353 351 350 352 348 351 352 351 350 353 352 352 354 353 352 352 350 347 345 345 345 345 345 344 343 343 344 343 345 344 347 346
349 349 350 354 357 357 355 354 350 346 345 346 351 350 351 350 349 352 352 352 354 352 352 351 352 352 351 351 352 352 348 346 345 343 342 341 341 341 340 340 342 344 345

GFSSE_850_thetae_297.txt.gz
Theta_e
340 341 343 341 341 344 343 337 336 339 339 341 341 340 338 337 334 337 338 338 342 338 340 338 338 336 335 334 333 331 331 332 331 331 330 336 339 342 344 342 331 335 337
341 342 340 339 339 338 340 341 341 342 341 341 340 340 340 340 339 342 342 341 336 337 337 338 339 339 338 334 334 342 342 340 338 336 334 335 341 341 342 338 331 332 333
341 342 340 341 341 339 339 341 341 341 340 339 341 341 339 340 339 340 339 338 338 337 340 332 329 332 334 330 341 342 343 344 344 343 340 332 335 335 335 332 331 330 329
342 341 340 339 340 340 341 340 341 340 343 341 341 341 338 334 342 339 340 340 340 339 336 333 328 328 327 334 344 344 344 345 345 344 345 343 330 330 331 331 332 332 331
341 341 337 337 340 340 340 340 339 329 325 321 321 336 337 333 338 340 337 337 334 330 329 328 325 328 332 335 342 344 343 347 344 345 344 343 328 331 333 336 337 332 330
341 340 336 340 339 340 340 330 322 328 346 341 317 325 331 332 335 334 332 329 328 326 325 325 324 324 331 338 345 346 344 346 345 345 343 341 326 330 331 330 333 332 330
340 338 338 340 338 337 324 323 324 339 344 342 319 325 329 332 331 329 329 328 327 326 325 325 325 325 332 343 345 346 347 346 345 345 342 332 325 328 332 329 331 334 332
338 338 337 339 335 323 324 331 332 335 322 321 321 326 330 330 329 329 329 329 328 328 328 327 327 329 334 338 340 341 342 344 343 339 329 329 329 329 330 329 328 330 332
337 334 339 338 332 326 331 327 324 324 326 328 329 330 329 330 330 330 330 330 330 330 330 329 331 334 337 339 341 341 342 342 342 339 330 330 331 331 331 331 332 332 331
341 335 339 335 326 332 330 331 333 336 333 332 332 333 337 336 335 335 335 333 334 336 333 332 334 335 337 338 340 341 340 341 339 336 331 331 332 332 332 332 332 333 333
348 341 338 336 329 333 332 346 348 350 350 350 350 347 345 339 340 337 336 340 349 350 349 345 342 341 337 337 337 339 340 341 339 335 335 335 335 335 336 336 336 336 336
349 346 347 344 337 334 332 338 340 340 351 347 346 348 346 339 344 347 349 349 351 350 352 353 353 350 348 344 338 338 339 341 337 340 339 341 340 340 341 341 341 341 340
350 350 340 349 345 341 338 348 340 340 345 350 345 345 348 344 344 349 348 351 350 351 349 349 345 340 339 340 349 348 343 342 338 344 341 341 342 342 342 342 343 343 343
349 344 343 348 346 342 343 346 348 342 342 348 349 348 349 348 353 350 347 349 350 344 343 351 351 351 337 342 347 339 347 343 341 344 341 343 343 342 342 343 344 345 346
348 346 343 347 347 347 348 348 348 346 339 344 343 347 337 346 349 349 348 348 349 350 351 349 351 349 342 344 344 341 342 345 343 344 340 342 344 344 345 345 345 345 345
349 344 350 350 347 345 347 346 346 340 345 346 343 338 346 345 344 345 348 349 348 345 343 349 350 348 338 339 340 340 339 336 346 345 345 347 344 349 345 345 346 346 347
349 347 347 350 350 345 344 346 343 343 345 347 350 348 340 341 347 351 337 349 350 343 348 349 348 348 335 337 346 345 342 342 344 346 342 345 346 343 341 348 349 348 351
348 350 347 347 340 340 342 343 342 343 346 346 345 345 338 335 340 347 351 352 349 344 346 347 350 350 349 349 348 341 335 348 349 347 348 348 346 347 338 342 350 352 353
349 349 348 346 338 337 343 345 350 349 342 344 344 346 345 345 336 343 346 345 346 343 343 345 346 350 350 344 349 350 349 347 349 349 348 345 343 348 346 349 349 347 353
348 349 349 347 347 341 347 350 350 345 346 350 345 343 345 345 345 345 336 345 347 343 344 344 346 346 346 342 347 348 346 343 348 346 346 342 343 347 350 350 350 352 349
349 348 345 348 348 346 348 344 347 346 348 349 350 350 348 350 352 350 346 348 350 350 350 348 346 344 336 341 347 347 350 342 346 349 345 339 345 349 351 352 352 353 352
349 348 348 351 347 346 344 346 350 351 351 350 348 349 348 349 349 351 350 349 349 350 350 348 351 351 350 345 346 348 348 345 340 346 347 344 342 344 344 348 348 351 351
349 349 348 350 347 346 344 350 352 350 350 349 349 351 349 347 346 348 349 350 347 347 348 348 350 351 353 350 349 348 347 348 348 345 343 338 337 343 344 345 345 347 350
350 350 349 349 347 347 345 350 350 349 348 346 351 350 348 344 349 349 349 350 348 349 350 349 348 350 352 352 354 349 345 351 353 350 346 346 342 343 344 342 342 344 341
348 347 349 346 345 340 349 350 351 350 349 346 349 346 345 345 345 343 340 350 345 348 349 350 352 349 349 349 350 350 350 345 347 352 350 347 345 343 342 342 342 340 341
348 348 349 350 348 347 344 348 348 349 351 351 350 347 345 344 344 341 340 339 337 342 345 349 348 348 348 349 348 347 349 350 347 349 350 349 352 351 349 347 342 340 341

GFSSE_850_thetae_303.txt.gz
Theta_e
338 342 342 341 341 341 341 340 340 340 340 341 339 338 339 339 337 336 334 331 333 339 335 341 339 335 334 335 334 334 334 334 334 334 334 333 336 333 331 333 334 336 336
342 342 344 342 341 337 339 338 338 338 337 335 335 334 334 334 334 337 343 338 341 340 340 335 335 333 331 331 331 331 331 330 332 336 338 339 339 329 328 330 333 336 334
341 339 341 340 339 340 339 339 338 337 338 336 336 336 339 339 339 336 336 342 337 338 339 337 334 335 339 336 333 334 339 334 333 334 338 338 335 332 330 330 331 335 337
337 338 340 341 340 341 341 339 338 338 339 338 337 338 337 339 339 338 340 339 332 333 339 338 333 340 341 342 341 342 341 342 341 340 337 332 331 332 330 330 335 332 333
338 340 339 339 340 340 341 340 340 338 340 337 334 341 343 341 340 340 342 335 330 329 327 332 336 342 343 343 345 343 342 343 343 341 332 329 329 329 331 332 331 333 337
337 338 339 339 339 340 334 325 335 319 334 339 335 338 341 339 340 330 328 327 326 326 329 328 340 343 343 342 344 345 345 343 342 342 340 330 334 335 334 335 330 330 332
335 341 343 339 338 324 322 343 342 321 322 330 330 332 331 328 327 326 326 325 325 324 326 331 340 341 344 346 345 345 344 343 340 331 332 328 330 330 329 331 331 329 329
339 341 342 337 324 327 333 343 340 320 326 329 329 327 327 327 328 328 327 326 325 325 326 332 337 344 345 346 345 344 342 340 338 330 329 328 329 330 330 332 330 330 329
338 336 326 324 332 341 338 322 321 325 328 328 328 328 329 330 330 330 329 329 329 328 331 340 342 342 343 344 344 343 341 340 336 333 329 329 329 330 331 331 331 330 329
338 330 327 330 326 323 323 326 328 328 328 329 331 332 333 334 334 334 334 333 332 335 336 338 339 340 341 341 342 341 341 341 339 333 331 330 330 331 331 332 332 332 331
335 327 331 327 329 331 333 334 335 336 338 337 337 337 337 338 339 344 345 346 344 340 336 338 338 339 339 340 340 340 340 339 339 335 333 333 333 333 334 334 333 333 332
334 329 330 331 343 348 348 349 348 347 346 344 342 343 343 344 345 347 349 350 350 350 350 349 348 345 340 337 337 337 338 338 339 340 339 339 337 338 338 338 339 338 336
330 331 330 342 347 341 340 343 344 345 345 343 343 345 346 346 349 348 348 349 348 346 345 344 338 340 345 344 346 345 339 340 341 341 342 342 342 341 341 341 341 341 342
336 331 336 344 342 341 342 344 345 341 342 342 342 346 347 348 349 348 348 342 343 345 347 345 344 340 337 335 341 338 342 343 343 341 341 341 343 344 343 344 344 343 344
343 337 333 341 345 346 345 345 342 345 342 342 345 345 346 347 347 346 349 346 345 344 345 346 339 335 339 336 338 342 338 341 340 340 342 342 341 342 342 344 344 344 344
341 347 339 338 341 343 344 344 345 340 345 342 341 342 344 344 347 345 344 348 346 346 346 347 344 337 337 335 336 336 336 337 341 339 343 343 343 343 344 344 345 345 344
345 346 345 344 344 344 346 345 346 344 343 343 342 343 338 343 347 347 349 348 346 344 344 346 342 342 342 338 342 338 337 340 344 338 347 345 345 344 345 346 344 345 344
343 343 347 347 344 345 345 343 340 343 343 345 345 336 340 340 345 347 344 345 345 344 343 344 346 341 343 344 345 343 345 346 347 345 346 346 345 344 346 346 345 342 340
347 344 347 348 346 344 345 343 345 344 346 344 347 345 343 342 341 342 345 345 344 343 339 345 345 344 344 343 344 344 343 344 346 346 345 344 344 340 343 345 347 347 348
348 346 344 348 348 347 345 344 344 343 345 343 342 344 346 346 343 347 343 340 344 346 346 347 348 347 345 343 339 340 344 344 346 347 346 347 344 342 345 348 348 348 349
349 347 344 346 347 346 338 343 344 347 346 346 347 343 344 347 346 347 345 344 346 348 347 347 347 347 347 348 349 346 343 345 345 344 345 345 343 343 342 343 344 344 347
347 347 346 347 346 336 336 343 343 348 346 349 347 348 347 349 347 348 349 345 346 345 346 349 348 348 346 350 350 349 349 340 337 342 345 341 343 344 344 346 344 342 343
347 347 348 348 344 337 339 342 343 346 346 346 347 347 347 347 347 347 348 347 347 346 344 346 346 347 347 347 349 350 351 350 349 344 339 339 340 343 346 344 344 342 342
348 348 348 348 344 344 342 342 345 346 346 349 347 348 347 346 346 345 346 347 347 344 347 346 346 345 348 348 349 347 347 347 349 348 343 337 337 335 341 345 342 344 343
347 348 348 348 345 346 346 343 346 347 346 348 348 346 344 344 344 346 344 344 341 343 344 345 345 346 348 347 347 348 348 349 348 347 346 345 346 345 340 336 342 344 345
348 348 348 348 346 349 347 346 345 347 345 346 346 346 345 346 344 343 343 342 340 340 340 343 344 343 338 340 345 346 347 347 347 347 343 343 347 346 346 345 341 338 342